Location: Ab? ar R?sh Ba?r?
(24.1861°N, 32.8847°E)
Time: 00:17:59
(UTC+00:00)

DMSP B5D2-2 - Pass Details

Date: 24 October 2021
Orbit: 789 x 806 km, 98.3° (Epoch: 05 December)

Event Time Altitude Azimuth Distance (km) Brightness Sun altitude
Rises 16:08:16 0° 20° (NNE) 3,295 7.0 -12.9°
Reaches altitude 10° 16:10:41 10° 26° (NNE) 2,361 6.2 -13.5°
Maximum altitude 16:15:43 48° 100° (E) 1,019 4.2 -14.6°
Drops below altitude 10° 16:20:42 10° 175° (S) 2,344 6.5 -15.7°
Sets 16:23:05 0° 180° (S) 3,269 7.3 -16.3°
